Imperial, CA

7:46 AM PST on December 13, 2017 (GMT -0800)
Imperial County

Weather History for KIPL - July, 2014

Change the Weather History Date:

Thursday, July 31, 2014

  Actual Average Record
Temperature  
Mean Temperature 98 °F -  
Max Temperature 109 °F 107 °F 119 °F (1996)
Min Temperature 87 °F 79 °F 69 °F (2001)
Cooling Degree Days 33    
Growing Degree Days 48 (Base 50)    
Moisture  
Dew Point 63 °F    
Average Humidity 35    
Maximum Humidity 61    
Minimum Humidity 19    
Precipitation  
Precipitation 0.00 in - - ()
Sea Level Pressure  
Sea Level Pressure 29.75 in    
Wind  
Wind Speed 9 mph (SE)    
Max Wind Speed 16 mph    
Max Gust Speed -    
Visibility 10 miles    
Events      
Averages and records for this station are not official NWS values.
T = Trace of Precipitation, MM = Missing Value Source: NWS Daily Summary

Daily Weather History Graph

Daily Weather History Graph

Search for Another Location

Airport or City:

Trip Planner

Search our weather history database for the weather conditions in past years. The results will help you decide how hot, cold, wet, or windy it might be!

Date:

Astronomy

Jul. 31, 2014 Rise Set
Actual Time 5:55 AM PDT 7:41 PM PDT
Civil Twilight 5:28 AM PDT 8:08 PM PDT
Nautical Twilight 4:55 AM PDT 8:40 PM PDT
Astronomical Twilight 4:21 AM PDT 9:15 PM PDT
Moon 10:09 AM PDT (7/31) 10:15 PM PDT (7/31)
Length of Visible Light 14h 40m
Length of Day
13h 46m
Waxing Crescent, 20% of the Moon is Illuminated
Jul 31
Waxing Crescent
Aug 3
First Quarter
Aug 10
Full
Aug 17
Last Quarter
Aug 25
New

Hourly Weather History & Observations

Time (PDT) Temp. Heat Index Dew Point Humidity Pressure Visibility Wind Dir Wind Speed Gust Speed Precip Events Conditions
12:53 AM 93.9 °F - 52.0 °F 24% 29.75 in 10.0 mi WSW 8.1 mph - N/A   Clear
1:53 AM 91.0 °F 88.5 °F 53.1 °F 27% 29.75 in 10.0 mi West 8.1 mph - N/A   Clear
2:53 AM 88.0 °F 86.1 °F 55.0 °F 32% 29.75 in 10.0 mi West 6.9 mph - N/A   Clear
3:53 AM 87.1 °F 84.9 °F 53.1 °F 31% 29.74 in 10.0 mi WSW 8.1 mph - N/A   Clear
4:53 AM 87.1 °F - 52.0 °F 30% 29.75 in 10.0 mi Calm Calm - N/A   Clear
5:53 AM 87.8 °F 85.7 °F 53.6 °F 31% 29.77 in 10.0 mi SE 8.1 mph - N/A   Unknown
6:53 AM 88.0 °F 89.3 °F 64.0 °F 45% 29.78 in 10.0 mi SE 5.8 mph - N/A   Clear
7:53 AM 90.0 °F 92.8 °F 66.9 °F 46% 29.80 in 10.0 mi SE 3.5 mph - N/A   Unknown
8:53 AM - - - N/A% 29.80 in - North - - N/A   Unknown
9:53 AM - - - N/A% 29.81 in - North - - N/A   Unknown
10:53 AM - - - N/A% 29.81 in - North - - N/A   Unknown
11:53 AM - - - N/A% 29.80 in - North - - N/A   Unknown
12:53 PM - - - N/A% 29.78 in - North - - N/A   Unknown
2:53 PM 109.4 °F 110.2 °F 59.0 °F 19% 29.74 in 10.0 mi North - - N/A   Clear
3:53 PM 109.9 °F 114.7 °F 64.0 °F 23% 29.72 in 10.0 mi ESE 11.5 mph - N/A   Clear
4:53 PM 108.0 °F 112.9 °F 64.9 °F 25% 29.70 in 10.0 mi ESE 9.2 mph - N/A   Clear
5:53 PM 106.0 °F 110.1 °F 64.0 °F 26% 29.69 in 10.0 mi ESE 13.8 mph - N/A   Clear
6:53 PM 102.2 °F 106.9 °F 66.2 °F 31% 29.69 in 10.0 mi SE 16.1 mph - N/A   Clear
7:53 PM 100.0 °F 107.0 °F 69.1 °F 37% 29.70 in 10.0 mi SE 16.1 mph - N/A   Clear
8:53 PM 98.1 °F 105.0 °F 70.0 °F 40% 29.72 in 10.0 mi SSE 12.7 mph - N/A   Clear
9:53 PM 96.1 °F 103.5 °F 71.1 °F 44% 29.73 in 10.0 mi SE 5.8 mph - N/A   Clear
10:53 PM 91.9 °F 103.9 °F 75.9 °F 59% 29.74 in 10.0 mi ESE 12.7 mph - N/A   Clear
11:53 PM 91.0 °F 102.9 °F 75.9 °F 61% 29.74 in 10.0 mi SE 11.5 mph - N/A   Clear